Theta_e
338 339 341 342 341 340 339 336 333 332 330 328 327 326 325 323 322 321 319 318 317 316 316 315 315 317 312
334 330 331 333 332 331 329 326 323 323 322 321 320 320 320 319 317 316 315 313 313 312 312 314 315 316 308
327 322 323 324 324 323 321 319 317 312 311 311 314 314 314 313 313 312 312 311 313 314 314 313 316 306 305
325 324 322 321 319 312 312 313 312 309 309 307 308 311 310 308 310 309 310 314 310 305 304 310 305 305 305
324 322 317 318 316 312 311 310 308 305 304 305 304 305 304 307 304 306 305 304 304 303 303 303 303 303 303
322 318 317 314 313 311 310 309 308 307 305 304 303 303 303 302 302 302 302 302 302 303 303 303 303 303 302
319 316 314 312 310 310 308 309 308 306 303 303 302 302 301 301 300 300 300 300 301 302 303 302 302 302 302
317 313 310 309 309 308 306 305 306 305 302 302 301 301 300 300 299 299 298 298 299 301 301 302 301 301 301
313 310 309 308 308 306 304 304 303 304 301 301 300 299 298 299 299 299 298 298 298 299 299 300 300 300 301
311 308 307 307 306 304 303 302 302 302 301 299 299 298 298 298 297 297 296 296 296 296 296 296 297 300 301
310 306 305 305 304 302 301 301 301 301 300 299 298 297 297 297 296 296 295 295 294 295 296 295 297 298 300
307 304 304 303 302 301 301 300 300 299 299 298 297 296 296 296 295 294 294 294 294 294 296 297 297 298 298
304 302 301 299 299 299 299 300 299 298 298 297 296 295 295 294 293 294 293 293 293 293 292 294 296 298 297
305 303 300 300 298 298 298 298 298 298 297 297 295 294 294 293 293 293 292 291 293 292 290 290 291 294 295
304 302 301 299 298 296 296 295 296 297 296 295 295 294 293 293 291 291 291 291 290 291 292 290 289 288 288
303 301 299 297 295 295 295 295 295 296 295 295 294 293 293 292 291 291 292 291 290 289 291 293 290 289 285
Wind_Speed
10 11 12 15 15 16 16 16 15 15 15 14 13 13 12 11 11 10 10 8 7 6 7 8 9 9 6
9 14 14 15 16 17 16 15 14 14 14 13 11 11 11 10 10 9 8 7 6 4 5 7 9 11 5
10 11 14 15 15 15 12 13 10 5 7 9 10 10 9 8 8 7 7 6 7 5 3 7 9 3 6
7 7 8 8 5 5 5 6 4 6 5 7 7 8 7 3 4 3 4 6 7 5 4 7 4 6 4
6 5 4 3 4 4 5 5 6 5 4 3 3 3 1 5 3 4 5 4 5 4 4 4 5 5 4
5 5 6 5 4 4 4 5 4 3 3 3 3 3 3 2 3 3 3 4 4 4 5 5 5 4 3
8 5 6 6 5 5 5 5 4 4 4 4 3 3 3 3 3 3 4 4 4 4 4 4 5 5 5
9 6 5 5 6 5 5 3 5 5 4 4 3 3 3 3 2 2 1 2 3 2 3 3 3 3 3
7 6 4 6 6 5 5 6 5 5 5 5 4 4 3 1 2 3 3 3 4 3 4 4 4 4 3
7 5 4 5 5 5 5 5 5 5 6 5 4 4 1 2 2 3 3 3 4 3 3 4 3 3 4
8 5 6 7 5 5 5 5 6 6 4 5 5 3 2 2 3 3 3 3 3 3 4 4 2 3 2
7 6 4 4 5 5 5 5 7 5 5 5 5 4 2 2 4 3 3 2 2 2 4 4 2 1 3
9 9 6 6 5 4 5 7 6 6 5 5 4 4 2 3 3 2 1 3 3 4 3 3 1 3 3
10 8 4 7 3 4 5 5 6 7 5 5 5 4 3 2 4 3 3 2 1 3 2 0 1 2 2
12 7 7 5 5 4 5 4 4 6 6 6 5 5 4 2 3 2 2 2 1 1 5 2 2 0 2
15 12 16 10 10 5 5 5 5 7 6 6 6 4 3 2 3 2 3 2 1 1 2 3 4 3 2
Wind_Direction
125 124 120 116 111 110 108 104 104 105 104 99 96 92 87 81 75 66 54 43 39 34 27 7 342 321 307
112 103 102 104 107 103 103 105 99 100 104 101 80 87 85 77 68 56 44 25 12 6 16 349 330 313 292
104 98 96 98 100 103 110 127 133 125 94 79 88 89 84 78 70 55 35 5 345 291 300 329 330 346 8
125 127 111 121 133 121 141 174 103 90 103 110 117 110 102 113 98 66 27 11 27 8 3 2 4 358 337
149 134 137 155 144 146 136 107 121 121 134 168 133 137 146 40 25 25 35 33 14 12 1 354 349 354 339
135 148 170 138 134 126 135 135 120 114 102 92 89 94 72 34 27 28 35 20 18 357 1 346 348 349 343
156 171 164 159 142 137 139 163 150 125 119 105 94 83 73 25 37 23 28 9 359 4 350 344 354 344 344
179 177 164 144 132 129 135 137 109 123 123 116 104 88 72 60 7 40 352 4 327 340 332 333 322 329 351
191 145 146 139 130 118 124 122 120 114 98 108 98 85 69 20 14 29 8 14 356 359 343 348 356 354 12
158 149 136 128 117 121 133 128 119 100 112 101 104 87 29 42 48 33 19 5 1 358 340 333 338 12 34
159 141 130 136 124 137 134 130 129 112 98 106 96 96 48 56 62 32 11 26 358 339 327 320 332 47 20
150 127 117 123 132 134 139 130 137 123 116 112 109 111 69 60 52 36 15 334 299 8 312 296 103 60 38
160 150 146 163 145 132 127 134 131 126 122 118 120 118 101 92 91 57 5 353 356 351 304 9 112 140 62
168 166 141 152 149 134 125 136 134 121 130 125 122 112 90 90 96 63 51 328 51 21 12 261 68 335 13
167 153 128 120 104 113 138 135 140 133 132 121 114 115 116 90 103 101 71 51 7 11 62 100 28 168 348
166 169 168 165 160 166 148 143 151 138 145 129 126 122 121 128 111 133 88 44 25 112 63 57 61 75 68